Location: Cisewo
(53.3833°N, 14.9000°E)
Time: 05:15:38
(UTC+00:00)

NOAA 18 - Pass Details

Date: 25 September 2021
Orbit: 841 x 860 km, 99.0° (Epoch: 17 October)

Event Time Altitude Azimuth Distance (km) Brightness Sun altitude
Exits shadow 19:43:30 61° 86° (E) 959 5.2 -25.0°
Maximum altitude 19:43:50 62° 68° (ENE) 949 5.2 -25.0°
Drops below altitude 10° 19:49:16 10° 349° (NNW) 2,486 8.2 -25.7°
Sets 19:51:40 0° 346° (NNW) 3,429 9.1 -26.0°
